Weather History for Moorhead, MN

Change the Weather History Date:

Saturday, September 29, 2012

  Actual Average (KFAR) Record (KFAR)
Temperature  
Mean Temperature 66 °F 53 °F  
Max Temperature 84 °F 65 °F 96 °F (1897)
Min Temperature 48 °F 42 °F 22 °F (1899)
Degree Days  
Heating Degree Days 0 12  
Month to date heating degree days 207  
Since 1 July heating degree days 257  
Cooling Degree Days 1 0  
Month to date cooling degree days 43  
Year to date cooling degree days 548  
Growing Degree Days 16 (Base 50)    
Moisture  
Dew Point 36 °F    
Average Humidity 39    
Maximum Humidity 71    
Minimum Humidity 14    
Precipitation  
Precipitation 0.00 in 0.08 in 1.55 in (1995)
Month to date precipitation 2.49  
Year to date precipitation 18.55  
Snow  
Snow 0.00 in 0.00 in - ()
Month to date snowfall 0.0  
Since 1 July snowfall 0.0  
Since 1 September snowfall 0.0  
Snow Depth -    
Sea Level Pressure  
Sea Level Pressure 30.05 in    
Wind  
Wind Speed 5 mph (South)    
Max Wind Speed 10 mph    
Max Gust Speed -    
Visibility 10 miles    
Events      
T = Trace of Precipitation, MM = Missing Value Source: NWS Daily Summary

Daily Weather History Graph

Daily Weather History Graph

Search for Another Location

Airport:

Trip Planner

Search our weather history database for the weather conditions in past years. The results will help you decide how hot, cold, wet, or windy it might be!

Date:

Astronomy

Sep. 29, 2012 Rise Set
Actual Time 7:23 AM CDT 7:09 PM CDT
Civil Twilight 6:53 AM CDT 7:39 PM CDT
Nautical Twilight 6:17 AM CDT 8:14 PM CDT
Astronomical Twilight 5:41 AM CDT 8:50 PM CDT
Moon 6:39 PM CDT (9/29) 6:57 AM CDT (9/29)
Length of Visible Light 12h 46m
Length of Day
11h 45m
Full, 100% of the Moon is Illuminated
Sep 29
Full
Sep 29
Full
Oct 8
Last Quarter
Oct 15
New
Oct 21
First Quarter

Hourly Weather History & Observations

Time (CDT) Temp. Dew Point Humidity Pressure Visibility Wind Dir Wind Speed Gust Speed Precip Events Conditions
12:14 AM 60.8 °F 42.8 °F 52% 30.08 in 7.0 mi South 4.6 mph - N/A   Clear
12:35 AM 59.0 °F 42.8 °F 55% 30.08 in 10.0 mi South 4.6 mph - N/A   Clear
12:55 AM 55.4 °F 42.8 °F 63% 30.08 in 10.0 mi Calm Calm - N/A   Clear
1:14 AM 57.2 °F 41.0 °F 55% 30.08 in 10.0 mi SSW 4.6 mph - N/A   Clear
1:35 AM 57.2 °F 39.2 °F 51% 30.09 in 10.0 mi SSW 4.6 mph - N/A   Clear
1:55 AM 55.4 °F 39.2 °F 54% 30.09 in 10.0 mi South 4.6 mph - N/A   Clear
2:15 AM 53.6 °F 42.8 °F 67% 30.10 in 10.0 mi South 3.5 mph - N/A   Clear
2:35 AM 53.6 °F 39.2 °F 58% 30.10 in 10.0 mi South 4.6 mph - N/A   Clear
2:55 AM 53.6 °F 41.0 °F 62% 30.10 in 10.0 mi South 3.5 mph - N/A   Clear
3:15 AM 55.4 °F 42.8 °F 63% 30.09 in 10.0 mi South 5.8 mph - N/A   Clear
3:35 AM 53.6 °F 42.8 °F 67% 30.10 in 10.0 mi SSE 5.8 mph - N/A   Clear
3:54 AM 51.8 °F 41.0 °F 67% 30.10 in 10.0 mi South 6.9 mph - N/A   Clear
4:15 AM 51.8 °F 41.0 °F 67% 30.10 in 10.0 mi South 6.9 mph - N/A   Clear
4:34 AM 53.6 °F 39.2 °F 58% 30.09 in 10.0 mi SSE 5.8 mph - N/A   Clear
4:55 AM 53.6 °F 39.2 °F 58% 30.10 in 10.0 mi SSE 6.9 mph - N/A   Clear
5:15 AM 51.8 °F 39.2 °F 62% 30.10 in 10.0 mi SSE 8.1 mph - N/A   Clear
5:34 AM 51.8 °F 41.0 °F 67% 30.10 in 10.0 mi SSE 6.9 mph - N/A   Clear
5:55 AM 51.8 °F 39.2 °F 62% 30.10 in 10.0 mi South 6.9 mph - N/A   Clear
6:15 AM 53.6 °F 39.2 °F 58% 30.10 in 10.0 mi South 5.8 mph - N/A   Clear
6:35 AM 51.8 °F 39.2 °F 62% 30.11 in 10.0 mi South 3.5 mph - N/A   Clear
6:55 AM 51.8 °F 39.2 °F 62% 30.11 in 10.0 mi SE 3.5 mph - N/A   Clear
7:15 AM 50.0 °F 39.2 °F 66% 30.11 in 10.0 mi SE 5.8 mph - N/A   Clear
7:35 AM 48.2 °F 39.2 °F 71% 30.11 in 10.0 mi SSE 6.9 mph - N/A   Clear
7:55 AM 51.8 °F 39.2 °F 62% 30.12 in 5.0 mi SSE 8.1 mph - N/A   Haze
8:14 AM 51.8 °F 39.2 °F 62% 30.12 in 7.0 mi SSE 6.9 mph - N/A   Clear
8:35 AM 53.6 °F 39.2 °F 58% 30.12 in 10.0 mi SSE 4.6 mph - N/A   Clear
8:55 AM 55.4 °F 39.2 °F 54% 30.13 in 7.0 mi SSE 5.8 mph - N/A   Clear
9:14 AM 57.2 °F 39.2 °F 51% 30.12 in 7.0 mi South 4.6 mph - N/A   Clear
9:35 AM 62.6 °F 37.4 °F 39% 30.12 in 10.0 mi South 3.5 mph - N/A   Clear
9:55 AM 64.4 °F 35.6 °F 34% 30.11 in 10.0 mi South 4.6 mph - N/A   Clear
10:14 AM 66.2 °F 35.6 °F 32% 30.11 in 10.0 mi South 3.5 mph - N/A   Clear
10:35 AM 68.0 °F 35.6 °F 30% 30.11 in 10.0 mi South 4.6 mph - N/A   Clear
10:55 AM 69.8 °F 33.8 °F 27% 30.11 in 10.0 mi South 3.5 mph - N/A   Clear
11:15 AM 69.8 °F 33.8 °F 27% 30.11 in 10.0 mi South 5.8 mph - N/A   Clear
11:35 AM 71.6 °F 30.2 °F 22% 30.10 in 10.0 mi SW 4.6 mph - N/A   Clear
11:55 AM 71.6 °F 32.0 °F 23% 30.10 in 10.0 mi SSW 5.8 mph - N/A   Clear
12:15 PM 73.4 °F 32.0 °F 22% 30.09 in 10.0 mi SSW 6.9 mph - N/A   Clear
12:35 PM 75.2 °F 32.0 °F 21% 30.08 in 10.0 mi SW 4.6 mph - N/A   Clear
12:54 PM 77.0 °F 30.2 °F 18% 30.08 in 10.0 mi SSW 6.9 mph - N/A   Clear
1:15 PM 78.8 °F 28.4 °F 16% 30.07 in 10.0 mi South 5.8 mph - N/A   Clear
1:35 PM 80.6 °F 26.6 °F 14% 30.06 in 10.0 mi South 5.8 mph - N/A   Clear
1:54 PM 80.6 °F 28.4 °F 15% 30.05 in 10.0 mi South 5.8 mph - N/A   Clear
2:15 PM 80.6 °F 26.6 °F 14% 30.04 in 10.0 mi South 4.6 mph - N/A   Clear
2:35 PM 82.4 °F 28.4 °F 14% 30.03 in 10.0 mi South 10.4 mph - N/A   Clear
2:55 PM 82.4 °F 28.4 °F 14% 30.02 in 10.0 mi SE 9.2 mph - N/A   Clear
3:15 PM 82.4 °F 30.2 °F 15% 30.02 in 10.0 mi South 9.2 mph - N/A   Clear
3:35 PM 82.4 °F 30.2 °F 15% 30.01 in 10.0 mi SSE 6.9 mph - N/A   Clear
3:55 PM 84.2 °F 30.2 °F 14% 30.00 in 10.0 mi SSW 10.4 mph - N/A   Clear
4:15 PM 82.4 °F 30.2 °F 15% 30.00 in 10.0 mi South 6.9 mph - N/A   Clear
4:34 PM 84.2 °F 30.2 °F 14% 29.99 in 10.0 mi South 6.9 mph - N/A   Clear
4:55 PM 82.4 °F 30.2 °F 15% 29.99 in 10.0 mi South 8.1 mph - N/A   Clear
5:15 PM 84.2 °F 30.2 °F 14% 29.98 in 10.0 mi SSW 9.2 mph - N/A   Clear
5:34 PM 82.4 °F 30.2 °F 15% 29.98 in 10.0 mi South 3.5 mph - N/A   Clear
5:55 PM 82.4 °F 30.2 °F 15% 29.98 in 10.0 mi South 4.6 mph - N/A   Clear
6:15 PM 82.4 °F 30.2 °F 15% 29.98 in 10.0 mi South 3.5 mph - N/A   Clear
6:35 PM 78.8 °F 33.8 °F 20% 29.97 in 10.0 mi SSE 4.6 mph - N/A   Clear
6:55 PM 75.2 °F 35.6 °F 24% 29.97 in 10.0 mi SSE 3.5 mph - N/A   Clear
7:15 PM 73.4 °F 35.6 °F 25% 29.97 in 10.0 mi SSE 4.6 mph - N/A   Clear
7:35 PM 71.6 °F 35.6 °F 27% 29.97 in 10.0 mi SSE 5.8 mph - N/A   Clear
7:55 PM 71.6 °F 35.6 °F 27% 29.97 in 10.0 mi SSE 4.6 mph - N/A   Clear
8:14 PM 68.0 °F 35.6 °F 30% 29.97 in 7.0 mi SSE 5.8 mph - N/A   Clear
8:35 PM 66.2 °F 35.6 °F 32% 29.98 in 10.0 mi SSE 5.8 mph - N/A   Clear
9:14 PM 64.4 °F 37.4 °F 37% 29.98 in 10.0 mi SSE 6.9 mph - N/A   Clear
9:35 PM 64.4 °F 37.4 °F 37% 29.98 in 10.0 mi SSE 8.1 mph - N/A   Clear
9:55 PM 62.6 °F 37.4 °F 39% 29.98 in 10.0 mi SSE 6.9 mph - N/A   Clear
10:14 PM 62.6 °F 37.4 °F 39% 29.98 in 10.0 mi SSE 8.1 mph - N/A   Clear
10:35 PM 62.6 °F 37.4 °F 39% 29.98 in 10.0 mi SSE 8.1 mph - N/A   Clear
10:55 PM 62.6 °F 37.4 °F 39% 29.99 in 10.0 mi SSE 8.1 mph - N/A   Clear
11:15 PM 60.8 °F 37.4 °F 42% 29.99 in 10.0 mi SSE 5.8 mph - N/A   Clear
11:35 PM 60.8 °F 37.4 °F 42% 29.99 in 10.0 mi SSE 6.9 mph - N/A   Clear
11:55 PM 60.8 °F 37.4 °F 42% 29.98 in 10.0 mi South 6.9 mph - N/A   Clear